Other Public Products
Issued by NWS Charleston, SC

Home | Current Version | Previous Version | Text Only | Print | Product List | Glossary Off
Versions: 1 2 3 4 5 6 7 8 9 10 11 12 13 14 15 16 17 18 19 20 21 22 23 24 25 26 27 28 29 30 31 32 33 34 35 36 37 38 39 40 41 42 43 44 45 46 47 48 49 50

640
FPUS82 KCHS 200624
OPUCHS

TEST...KCHS/KSAV Gateway Observations...TEST
National Weather Service Charleston SC
200 AM EDT WED SEP 20 2017

NOTE: "fair" indicates few or no clouds below 12,000 feet with no
significant weather and/or obstructions to visibility.

SCZ050-WAZ558-NCZ071-TXZ119-213-PAZ071-DCZ001-FLZ074-172-MI076-
NYZ176-178-MAZ016-IL014-TNZ027-NJZ106-GAZ044-MD014-200700-

...Gateway Observations for Charleston International...

CITY           SKY/WX    TMP DP  RH WIND       PRES   REMARKS
Chas Airport   CLEAR     75  74  96 SW5       29.98R
6HR MIN TEMP:  73; 6HR MAX TEMP:  79;

Seattle        MOCLDY    53  48  83 CALM      29.73F
6HR MIN TEMP:  52; 6HR MAX TEMP:  63; 6HR PCP: TRACE;

Charlotte      CLEAR     71  69  93 CALM      30.00S
6HR MIN TEMP:  68; 6HR MAX TEMP:  77;

Dallas DFW     MOCLDY    84  71  65 S14       29.81F
6HR MIN TEMP:  80; 6HR MAX TEMP:  94; 6HR PCP: TRACE;

Dallas Love    CLOUDY    85  70  60 S13       29.82F
6HR MIN TEMP:  83; 6HR MAX TEMP:  94;

Philladelphia  CLOUDY    71  63  75 N13       29.85S
6HR MIN TEMP:  71; 6HR MAX TEMP:  75; 6HR PCP: TRACE;

Wash National  PTCLDY    71  66  84 N7        29.92S
6HR MIN TEMP:  71; 6HR MAX TEMP:  78;

Baltimore      MOCLDY    70  66  87 NW5       29.91R
6HR MIN TEMP:  70; 6HR MAX TEMP:  75; 6HR PCP: TRACE;

Miami          MOCLDY    83  76  79 CALM      29.95F HX  91
6HR MIN TEMP:  80; 6HR MAX TEMP:  86; 6HR PCP: TRACE;

Detroit        CLOUDY    68  67  96 E3        29.97S FOG
6HR MIN TEMP:  68; 6HR MAX TEMP:  71;

Newark         CLOUDY    72  64  76 N18G26    29.84F
6HR MIN TEMP:  69; 6HR MAX TEMP:  73; 6HR PCP: TRACE;

Laguardia      CLOUDY    72  65  78 N14       29.84S
6HR MIN TEMP:  71; 6HR MAX TEMP:  74; 6HR PCP: TRACE;

J F K          CLOUDY    72  64  76 N17G26    29.83F
6HR MIN TEMP:  70; 6HR MAX TEMP:  72;

Boston Logan   CLOUDY    64  64 100 N16       29.93F FOG
6HR MIN TEMP:  63; 6HR MAX TEMP:  64; 6HR PCP:  0.01;

Ft. Lauderdale MOCLDY    80  74  81 N3        29.94F
Chicago O`Hare CLEAR     64  61  90 SE5       29.92S
6HR MIN TEMP:  64; 6HR MAX TEMP:  71;

Chicago Midway CLEAR     67  65  93 SE3       29.92S
6HR MIN TEMP:  67; 6HR MAX TEMP:  71;

Houston Bush   CLOUDY    80  76  87 SE9       29.89F
6HR MIN TEMP:  79; 6HR MAX TEMP:  87;

Houston Hobby  MOCLDY    82  76  81 SE5       29.89S
6HR MIN TEMP:  81; 6HR MAX TEMP:  86;

Nashville      CLEAR     68  66  93 SE3       29.98S
6HR MIN TEMP:  68; 6HR MAX TEMP:  73;

Atlanta        PTCLDY    73  68  84 NW5       30.00F
6HR MIN TEMP:  73; 6HR MAX TEMP:  82;


$$

GAZ044-118-TXZ119-213-NCZ071-DCZ001-MDZ014-506-PAZ021-071-NJZ106-
NYZ176-178-MAZ106-OHZ011-021-055-MIZ076-KYZ091-ILZ014-INZ047-
MNZ060-ONZ431-200700-

...Gateway Observations for Savannah International...

CITY           SKY/WX    TMP DP  RH WIND       PRES   REMARKS
Savannah Arpt  PTCLDY    75  72  90 S3        29.99R
6HR MIN TEMP:  75; 6HR MAX TEMP:  80;

Atlanta        PTCLDY    73  68  84 NW5       30.00F
6HR MIN TEMP:  73; 6HR MAX TEMP:  82;

Charlotte      CLEAR     71  69  93 CALM      30.00S
6HR MIN TEMP:  68; 6HR MAX TEMP:  77;

Dallas DFW     MOCLDY    84  71  65 S14       29.81F
6HR MIN TEMP:  80; 6HR MAX TEMP:  94; 6HR PCP: TRACE;

Houston Bush   CLOUDY    80  76  87 SE9       29.89F
6HR MIN TEMP:  79; 6HR MAX TEMP:  87;

Wash National  PTCLDY    71  66  84 N7        29.92S
6HR MIN TEMP:  71; 6HR MAX TEMP:  78;

Wash Dulles    PTCLDY    65  64  97 W5        29.94R
6HR MIN TEMP:  65; 6HR MAX TEMP:  77;

Baltimore      MOCLDY    70  66  87 NW5       29.91R
6HR MIN TEMP:  70; 6HR MAX TEMP:  75; 6HR PCP: TRACE;

Philadelphia   CLOUDY    71  63  75 N13       29.85S
6HR MIN TEMP:  71; 6HR MAX TEMP:  75; 6HR PCP: TRACE;

Newark         CLOUDY    72  64  76 N18G26    29.84F
6HR MIN TEMP:  69; 6HR MAX TEMP:  73; 6HR PCP: TRACE;

Laguardia      CLOUDY    72  65  78 N14       29.84S
6HR MIN TEMP:  71; 6HR MAX TEMP:  74; 6HR PCP: TRACE;

J F K          CLOUDY    72  64  76 N17G26    29.83F
6HR MIN TEMP:  70; 6HR MAX TEMP:  72;

Boston         CLOUDY    64  64 100 N16       29.93F FOG
6HR MIN TEMP:  63; 6HR MAX TEMP:  64; 6HR PCP:  0.01;

Pittsburg      MOCLDY    66  63  90 CALM      29.99S
6HR MIN TEMP:  65; 6HR MAX TEMP:  76;

Akron          CLOUDY    69  63  81 S3        29.99S
6HR MIN TEMP:  68; 6HR MAX TEMP:  76;

Cleveland      CLOUDY    69  64  84 CALM      30.00R
6HR MIN TEMP:  68; 6HR MAX TEMP:  76;

Cincinnati     CLEAR     65  65 100 S6        29.98R
6HR MIN TEMP:  63; 6HR MAX TEMP:  72;

Columbus       CLOUDY    67  67 100 CALM      29.97S
Detroit        CLOUDY    68  67  96 E3        29.97S FOG
6HR MIN TEMP:  68; 6HR MAX TEMP:  71;

Chicago O`Hare CLEAR     64  61  90 SE5       29.92S
6HR MIN TEMP:  64; 6HR MAX TEMP:  71;

Minneapolis    CLOUDY    72  65  78 SE15G24   29.65F
6HR MIN TEMP:  71; 6HR MAX TEMP:  76;

Indianapolis   PTCLDY    68  66  93 SE6       29.95S
6HR MIN TEMP:  68; 6HR MAX TEMP:  77;

Toronto Canada PTCLDY    68  63  83 NE3       30.01R

$$




USA.gov is the U.S. government's official web portal to all federal, state and local government web resources and services.